KOREASAT 7 (42691 NORAD) Tracking and Keplerian Element Data

This shows tracking and keplerian element data for the satellite.

Feedback or suggestion? Click here.




ElementValue
Catalog42691
NameKOREASAT 7
Epoch Orbit725
Epoch Day113.98694618
Epoch Year2019
RAAN303.9266
Inclination0.0188
Eccentricity0.0001426
Argument of Perigee91.5584
Mean Anonmoly287.4514
Mean Motion1.00271677
Decay Rate-3.77E-06
L11 42691U 17023A 19113.98694618 -.00000377 00000-0 00000+0 0 9998
L22 42691 0.0188 303.9266 0001426 91.5584 287.4514 1.00271677 7251

Live tracking and technical data element details for KOREASAT 7 (NORAD 42691). KOREASAT 7 can be tracked NOW for your location showing map with azimuth and elevation plus other details from your city location.

Track the satellite on the map from your city or location and see movement details for azimuth, elevation, latitude, longitude, range, height, and movement on the map or in text.







IsCatalogInMostPopularTable: catalog: 42691, numindb: 209
Update: records affected: 1



GetName: 42691 KOREASAT 7

Hit Count: updated at: Thu, 25 Apr 2019 19:55:58 GMT